Location: Okie-Tex Star Party
(36.8978°N, 102.9520°W)
Time: 03:32:47
(UTC-05:00)

Oscar 16 - Visible Passes

Search period start: 05 May 2016 00:00
Search period end: 15 May 2016 00:00
Orbit: 776 x 790 km, 98.6° (Epoch: 04 May)

Date Brightness Start Highest point End Pass type
(mag) Time Alt. Az. Time Alt. Az. Time Alt. Az.
05 May 12.5 02:40:35 10° NE 02:43:22 24° ENE 02:43:22 24° ENE visible
05 May 11.7 04:19:46 10° N 04:23:56 31° WNW 04:23:56 31° WNW visible
06 May 13.2 02:10:38 10° ENE 02:11:27 12° ENE 02:11:27 12° ENE visible
06 May 11.1 03:47:44 10° N 03:52:02 54° NNW 03:52:02 54° NNW visible
07 May 11.4 03:16:09 10° NNE 03:20:07 49° NE 03:20:07 49° NE visible
07 May 12.5 04:57:16 10° NNW 05:00:04 15° WNW 05:00:42 14° WNW visible
08 May 12.3 02:45:01 10° NE 02:48:12 27° ENE 02:48:12 27° ENE visible
08 May 11.8 04:24:25 10° N 04:28:47 28° WNW 04:28:47 28° WNW visible
09 May 13.1 02:14:48 10° ENE 02:16:17 14° ENE 02:16:17 14° ENE visible
09 May 11.0 03:52:20 10° N 03:56:52 53° NW 03:56:52 53° NW visible
10 May 11.1 03:20:40 10° NNE 03:24:56 57° NE 03:24:56 57° NE visible
10 May 12.6 05:02:10 10° NW 05:04:33 13° WNW 05:05:31 13° WNW visible
11 May 12.1 02:49:28 10° NNE 02:53:01 31° ENE 02:53:01 31° ENE visible
11 May 11.9 04:29:05 10° NNW 04:33:20 26° WNW 04:33:36 26° WNW visible
12 May 12.9 02:19:04 10° NE 02:21:06 16° ENE 02:21:06 16° ENE visible
12 May 11.0 03:56:55 10° N 04:01:40 50° WNW 04:01:40 50° WNW visible
13 May 10.9 03:25:13 10° NNE 03:29:45 66° NE 03:29:45 66° NE visible
13 May 12.7 05:07:09 10° NW 05:09:02 12° WNW 05:10:20 11° WNW visible
14 May 11.9 02:53:56 10° NNE 02:57:49 35° ENE 02:57:49 35° ENE visible
14 May 12.0 04:33:47 10° NNW 04:37:50 24° WNW 04:38:24 23° WNW visible
